BAW35F LOWW-LHBP

Flight info

Callsign BAW35F
Flight time 0h 33m
Altitude 23000
Route ADAMA1D ADAMA Z647 ANEXA ANEXA2H
Aircraft B772/H-SDE1E3FGHIJ3J5J6M1M2P2RWXYZ/LB1D1

Departure

Time 2026-05-07 18:46
Airport Vienna International Airport (LOWW)

Arrival

Time 2026-05-07 19:19
Airport Budapest Liszt Ferenc International Airport (LHBP)
Time Latitude Longitude Altitude Speed Heading
2026-05-07 18:05 48.11759 16.56120 595 ft 0 kts 26°
2026-05-07 18:32 48.11759 16.56119 595 ft 0 kts 26°
2026-05-07 18:35 48.11755 16.56117 595 ft 2 kts 26°
2026-05-07 18:35 48.11747 16.56111 595 ft 1 kts 25°
2026-05-07 18:35 48.11733 16.56103 595 ft 2 kts
2026-05-07 18:36 48.11718 16.56101 595 ft 2 kts 354°
2026-05-07 18:36 48.11704 16.56106 595 ft 2 kts 340°
2026-05-07 18:36 48.11690 16.56115 595 ft 2 kts 326°
2026-05-07 18:36 48.11679 16.56130 595 ft 2 kts 311°
2026-05-07 18:37 48.11670 16.56146 596 ft 1 kts 298°
2026-05-07 18:37 48.11669 16.56151 596 ft 0 kts 296°
2026-05-07 18:39 48.11670 16.56148 596 ft 1 kts 296°
2026-05-07 18:39 48.11684 16.56103 595 ft 7 kts 296°
2026-05-07 18:40 48.11702 16.56048 594 ft 5 kts 290°
2026-05-07 18:40 48.11686 16.55987 593 ft 4 kts 213°
2026-05-07 18:40 48.11643 16.55983 592 ft 7 kts 154°
2026-05-07 18:40 48.11607 16.56055 594 ft 9 kts 117°
2026-05-07 18:41 48.11575 16.56153 596 ft 11 kts 116°
2026-05-07 18:41 48.11539 16.56263 598 ft 12 kts 116°
2026-05-07 18:41 48.11499 16.56383 601 ft 12 kts 116°
2026-05-07 18:41 48.11462 16.56499 605 ft 12 kts 116°
2026-05-07 18:42 48.11425 16.56614 608 ft 12 kts 116°
2026-05-07 18:42 48.11384 16.56739 609 ft 14 kts 116°
2026-05-07 18:42 48.11333 16.56889 610 ft 16 kts 119°
2026-05-07 18:42 48.11286 16.57030 612 ft 13 kts 112°
2026-05-07 18:43 48.11241 16.57179 611 ft 17 kts 116°
2026-05-07 18:43 48.11190 16.57334 609 ft 13 kts 116°
2026-05-07 18:43 48.11142 16.57483 606 ft 18 kts 116°
2026-05-07 18:43 48.11109 16.57582 605 ft 11 kts 116°
2026-05-07 18:44 48.11079 16.57645 605 ft 6 kts 153°
2026-05-07 18:44 48.11048 16.57643 605 ft 4 kts 195°
2026-05-07 18:44 48.11011 16.57623 606 ft 7 kts 205°
2026-05-07 18:44 48.10955 16.57581 607 ft 9 kts 214°
2026-05-07 18:45 48.10926 16.57522 607 ft 7 kts 266°
2026-05-07 18:45 48.10935 16.57473 608 ft 0 kts 294°
2026-05-07 18:45 48.10981 16.57328 610 ft 47 kts 296°
2026-05-07 18:45 48.11250 16.56500 605 ft 126 kts 296°
2026-05-07 18:46 48.11718 16.55118 896 ft 158 kts 295°
2026-05-07 18:46 48.12231 16.53716 1704 ft 160 kts 293°
2026-05-07 18:46 48.12515 16.52155 2319 ft 163 kts 272°
2026-05-07 18:46 48.12291 16.50431 2717 ft 180 kts 244°
2026-05-07 18:47 48.11460 16.48959 3140 ft 199 kts 215°
2026-05-07 18:47 48.10123 16.48155 3595 ft 218 kts 198°
2026-05-07 18:47 48.08617 16.47558 4080 ft 234 kts 195°
2026-05-07 18:47 48.06934 16.47339 4521 ft 254 kts 178°
2026-05-07 18:48 48.05114 16.47648 4985 ft 270 kts 173°
2026-05-07 18:48 48.03254 16.48028 5655 ft 277 kts 173°
2026-05-07 18:48 48.01322 16.48405 6361 ft 283 kts 173°
2026-05-07 18:48 47.99446 16.49194 7055 ft 286 kts 151°
2026-05-07 18:49 47.97984 16.51131 7747 ft 287 kts 123°
2026-05-07 18:49 47.97267 16.53865 8455 ft 285 kts 96°
2026-05-07 18:49 47.97229 16.56780 9249 ft 283 kts 87°
2026-05-07 18:49 47.97290 16.59705 10057 ft 282 kts 87°
2026-05-07 18:50 47.97358 16.62647 10537 ft 294 kts 87°
2026-05-07 18:50 47.97430 16.65751 10945 ft 308 kts 87°
2026-05-07 18:50 47.97503 16.69013 11592 ft 315 kts 88°
2026-05-07 18:50 47.97576 16.72276 12327 ft 320 kts 88°
2026-05-07 18:51 47.97648 16.75560 13189 ft 321 kts 89°
2026-05-07 18:51 47.97720 16.78872 14040 ft 324 kts 89°
2026-05-07 18:51 47.97791 16.82220 14860 ft 329 kts 89°
2026-05-07 18:51 47.97863 16.85676 15700 ft 335 kts 89°
2026-05-07 18:52 47.97935 16.89132 16513 ft 342 kts 90°
2026-05-07 18:52 47.98008 16.92708 17309 ft 348 kts 90°
2026-05-07 18:52 47.98079 16.96299 18128 ft 352 kts 90°
2026-05-07 18:52 47.98151 16.99928 18928 ft 357 kts 91°
2026-05-07 18:53 47.98224 17.03676 19688 ft 363 kts 91°
2026-05-07 18:53 47.98296 17.07448 20422 ft 368 kts 91°
2026-05-07 18:53 47.98368 17.11253 21183 ft 373 kts 92°
2026-05-07 18:53 47.98439 17.15112 21919 ft 377 kts 92°
2026-05-07 18:54 47.98510 17.19013 22640 ft 381 kts 92°
2026-05-07 18:54 47.98581 17.22986 22952 ft 383 kts 92°
2026-05-07 18:54 47.98651 17.26903 22976 ft 380 kts 92°
2026-05-07 18:54 47.98721 17.30830 22976 ft 380 kts 92°
2026-05-07 18:55 47.98658 17.34766 22977 ft 375 kts 101°
2026-05-07 18:55 47.98280 17.38560 22982 ft 374 kts 103°
2026-05-07 18:55 47.97857 17.42392 22969 ft 373 kts 103°
2026-05-07 18:55 47.97431 17.46204 22973 ft 372 kts 104°
2026-05-07 18:56 47.97002 17.50029 22973 ft 374 kts 104°
2026-05-07 18:56 47.96572 17.53840 22976 ft 374 kts 104°
2026-05-07 18:56 47.96143 17.57641 22975 ft 374 kts 103°
2026-05-07 18:56 47.95711 17.61461 22967 ft 374 kts 104°
2026-05-07 18:57 47.95278 17.65267 22977 ft 374 kts 104°
2026-05-07 18:57 47.94845 17.69064 22968 ft 374 kts 104°
2026-05-07 18:57 47.94410 17.72868 22971 ft 374 kts 104°
2026-05-07 18:57 47.93968 17.76728 22961 ft 374 kts 105°
2026-05-07 18:58 47.93534 17.80502 22964 ft 374 kts 105°
2026-05-07 18:58 47.93092 17.84327 22959 ft 374 kts 105°
2026-05-07 18:58 47.92649 17.88154 22967 ft 376 kts 105°
2026-05-07 18:58 47.92204 17.91981 22969 ft 375 kts 105°
2026-05-07 18:59 47.91764 17.95764 22959 ft 375 kts 105°
2026-05-07 18:59 47.91222 17.99543 22971 ft 372 kts 114°
2026-05-07 18:59 47.90186 18.02982 22960 ft 361 kts 127°
2026-05-07 18:59 47.88793 18.06036 22820 ft 348 kts 131°
2026-05-07 19:00 47.87416 18.08897 22461 ft 344 kts 131°
2026-05-07 19:00 47.86009 18.11801 21761 ft 350 kts 131°
2026-05-07 19:00 47.84589 18.14726 21174 ft 352 kts 131°
2026-05-07 19:00 47.83163 18.17666 20717 ft 350 kts 131°
2026-05-07 19:01 47.81751 18.20573 20295 ft 347 kts 131°
2026-05-07 19:01 47.80337 18.23483 19887 ft 344 kts 131°
2026-05-07 19:01 47.78941 18.26353 19491 ft 341 kts 131°
2026-05-07 19:01 47.77573 18.29162 19092 ft 338 kts 131°
2026-05-07 19:02 47.76203 18.31972 18677 ft 336 kts 131°
2026-05-07 19:02 47.74828 18.34791 18259 ft 334 kts 131°
2026-05-07 19:02 47.73478 18.37554 17875 ft 332 kts 131°
2026-05-07 19:02 47.72134 18.40302 17485 ft 330 kts 130°
2026-05-07 19:03 47.70792 18.43043 17075 ft 329 kts 130°
2026-05-07 19:03 47.69456 18.45770 16666 ft 327 kts 130°
2026-05-07 19:03 47.68121 18.48490 16264 ft 326 kts 130°
2026-05-07 19:03 47.66780 18.51220 15861 ft 324 kts 130°
2026-05-07 19:04 47.65468 18.53890 15471 ft 323 kts 130°
2026-05-07 19:04 47.64144 18.56580 15071 ft 322 kts 129°
2026-05-07 19:04 47.62837 18.59234 14676 ft 320 kts 129°
2026-05-07 19:04 47.61533 18.61878 14282 ft 319 kts 129°
2026-05-07 19:05 47.60218 18.64542 13890 ft 318 kts 129°
2026-05-07 19:05 47.58926 18.67158 13493 ft 317 kts 129°
2026-05-07 19:05 47.57629 18.69780 13096 ft 315 kts 129°
2026-05-07 19:05 47.56348 18.72369 12713 ft 314 kts 129°
2026-05-07 19:06 47.55057 18.74976 12318 ft 313 kts 129°
2026-05-07 19:06 47.52502 18.80126 11535 ft 311 kts 129°
2026-05-07 19:06 47.51223 18.82700 11158 ft 309 kts 129°
2026-05-07 19:07 47.49958 18.85243 10778 ft 308 kts 128°
2026-05-07 19:07 47.48696 18.87779 10398 ft 306 kts 128°
2026-05-07 19:07 47.47453 18.90273 10093 ft 302 kts 128°
2026-05-07 19:07 47.46232 18.92723 10012 ft 290 kts 128°
2026-05-07 19:08 47.45059 18.95076 9867 ft 282 kts 128°
2026-05-07 19:08 47.43885 18.97426 9531 ft 282 kts 128°
2026-05-07 19:08 47.42736 18.99724 9195 ft 282 kts 128°
2026-05-07 19:08 47.41577 19.02038 8862 ft 281 kts 128°
2026-05-07 19:09 47.40406 19.04376 8390 ft 286 kts 128°
2026-05-07 19:09 47.39223 19.06734 8055 ft 285 kts 128°
2026-05-07 19:09 47.38042 19.09087 7740 ft 284 kts 128°
2026-05-07 19:09 47.36873 19.11416 7416 ft 283 kts 128°
2026-05-07 19:10 47.35714 19.13721 7098 ft 282 kts 128°
2026-05-07 19:10 47.34545 19.16046 6778 ft 281 kts 128°
2026-05-07 19:10 47.33392 19.18337 6450 ft 280 kts 128°
2026-05-07 19:10 47.32232 19.20640 6144 ft 279 kts 128°
2026-05-07 19:11 47.31073 19.22937 5840 ft 278 kts 128°
2026-05-07 19:11 47.29929 19.25205 5537 ft 277 kts 128°
2026-05-07 19:11 47.28780 19.27477 5232 ft 276 kts 128°
2026-05-07 19:11 47.27650 19.29713 4941 ft 274 kts 128°
2026-05-07 19:12 47.26510 19.31966 4634 ft 273 kts 128°
2026-05-07 19:12 47.25388 19.34180 4388 ft 270 kts 128°
2026-05-07 19:12 47.24294 19.36383 4357 ft 259 kts 123°
2026-05-07 19:12 47.23743 19.38821 4309 ft 250 kts 94°
2026-05-07 19:13 47.23956 19.41277 4264 ft 239 kts 67°
2026-05-07 19:13 47.24789 19.43288 4226 ft 229 kts 50°
2026-05-07 19:13 47.25837 19.44993 4198 ft 219 kts 43°
2026-05-07 19:13 47.26911 19.46508 4158 ft 211 kts 41°
2026-05-07 19:14 47.28019 19.47911 3981 ft 208 kts 28°
2026-05-07 19:14 47.29371 19.48441 3720 ft 202 kts 356°
2026-05-07 19:14 47.30661 19.47828 3483 ft 193 kts 322°
2026-05-07 19:14 47.31634 19.46516 3265 ft 190 kts 311°
2026-05-07 19:15 47.32518 19.45076 3049 ft 188 kts 309°
2026-05-07 19:15 47.33388 19.43659 2835 ft 187 kts 310°
2026-05-07 19:15 47.34272 19.42241 2616 ft 185 kts 310°
2026-05-07 19:15 47.35118 19.40887 2402 ft 173 kts 310°
2026-05-07 19:16 47.35912 19.39614 2204 ft 166 kts 310°
2026-05-07 19:16 47.36670 19.38399 2006 ft 159 kts 310°
2026-05-07 19:16 47.37420 19.37196 1809 ft 160 kts 310°
2026-05-07 19:16 47.38180 19.35978 1606 ft 160 kts 310°
2026-05-07 19:17 47.38915 19.34800 1400 ft 152 kts 310°
2026-05-07 19:17 47.39596 19.33710 1195 ft 138 kts 310°
2026-05-07 19:17 47.40221 19.32720 985 ft 130 kts 311°
2026-05-07 19:17 47.40835 19.31738 833 ft 128 kts 310°
2026-05-07 19:18 47.41436 19.30772 681 ft 127 kts 311°
2026-05-07 19:18 47.42025 19.29825 535 ft 126 kts 310°
2026-05-07 19:18 47.42617 19.28867 428 ft 125 kts 311°
2026-05-07 19:18 47.43129 19.28040 441 ft 90 kts 312°
2026-05-07 19:19 47.43471 19.27485 459 ft 55 kts 312°
2026-05-07 19:19 47.43649 19.27194 467 ft 27 kts 308°
2026-05-07 19:19 47.43733 19.26946 474 ft 27 kts 285°
2026-05-07 19:19 47.43765 19.26755 480 ft 17 kts 282°
2026-05-07 19:20 47.43790 19.26583 481 ft 8 kts 282°
2026-05-07 19:20 47.43795 19.26551 481 ft 0 kts 283°
2026-05-07 19:21 47.43798 19.26529 481 ft 4 kts 282°
2026-05-07 19:21 47.43808 19.26461 482 ft 8 kts 282°
2026-05-07 19:21 47.43826 19.26371 484 ft 10 kts 292°
2026-05-07 19:21 47.43872 19.26276 485 ft 13 kts 313°
2026-05-07 19:22 47.43909 19.26168 485 ft 12 kts 253°
2026-05-07 19:22 47.43847 19.26065 485 ft 15 kts 223°
2026-05-07 19:22 47.43756 19.25942 483 ft 19 kts 222°
2026-05-07 19:22 47.43647 19.25795 481 ft 23 kts 222°
2026-05-07 19:23 47.43530 19.25637 475 ft 11 kts 222°
2026-05-07 19:23 47.43458 19.25541 474 ft 16 kts 222°
2026-05-07 19:23 47.43388 19.25446 472 ft 9 kts 221°
2026-05-07 19:23 47.43345 19.25431 471 ft 8 kts 153°
2026-05-07 19:24 47.43292 19.25515 470 ft 13 kts 130°
2026-05-07 19:24 47.43247 19.25593 470 ft 8 kts 126°
2026-05-07 19:24 47.43253 19.25648 470 ft 1 kts 44°
2026-05-07 19:24 47.43267 19.25668 471 ft 4 kts 44°
2026-05-07 19:25 47.43287 19.25696 471 ft 2 kts 42°